Weather History for KROG - February, 2014

Change the Weather History Date:

Sunday, February 16, 2014

  Actual Average Record
Temperature  
Mean Temperature 46 °F -  
Max Temperature 60 °F 49 °F 73 °F (2006)
Min Temperature 32 °F 31 °F 10 °F (2007)
Degree Days  
Heating Degree Days 19    
Moisture  
Dew Point 28 °F    
Average Humidity 50    
Maximum Humidity 85    
Minimum Humidity 26    
Precipitation  
Precipitation 0.00 in - - ()
Sea Level Pressure  
Sea Level Pressure 30.06 in    
Wind  
Wind Speed 6 mph (East)    
Max Wind Speed 14 mph    
Max Gust Speed -    
Visibility 10 miles    
Events      
Averages and records for this station are not official NWS values.
T = Trace of Precipitation, MM = Missing Value Source: NWS Daily Summary

Daily Weather History Graph

Daily Weather History Graph

Search for Another Location

Airport or City:

Trip Planner

Search our weather history database for the weather conditions in past years. The results will help you decide how hot, cold, wet, or windy it might be!

Date:

Astronomy

Feb. 16, 2014 Rise Set
Actual Time 7:03 AM CST 5:58 PM CST
Civil Twilight 6:36 AM CST 6:24 PM CST
Nautical Twilight 6:06 AM CST 6:54 PM CST
Astronomical Twilight 5:36 AM CST 7:24 PM CST
Moon 7:51 PM CST (2/16) 7:37 AM CST (2/16)
Length of Visible Light 11h 48m
Length of Day
10h 55m
Full, 97% of the Moon is Illuminated
Feb 16
Full
Feb 22
Last Quarter
Mar 1
New
Mar 8
First Quarter
Mar 16
Full

Hourly Weather History & Observations

Time (CST) Temp. Windchill Dew Point Humidity Pressure Visibility Wind Dir Wind Speed Gust Speed Precip Events Conditions
12:57 AM 37.9 °F 35.5 °F 28.0 °F 68% 30.08 in 10.0 mi WSW 3.5 mph - N/A   Clear
1:57 AM 39.9 °F - 28.0 °F 63% 30.08 in 10.0 mi Calm Calm - N/A   Clear
2:57 AM 41.0 °F 37.1 °F 28.9 °F 62% 30.08 in 10.0 mi NNW 5.8 mph - N/A   Clear
3:57 AM 39.9 °F 37.8 °F 28.9 °F 65% 30.09 in 10.0 mi NW 3.5 mph - N/A   Clear
4:57 AM 37.9 °F - 28.9 °F 70% 30.10 in 10.0 mi Calm Calm - N/A   Clear
5:57 AM 36.0 °F - 28.9 °F 76% 30.12 in 10.0 mi Calm Calm - N/A   Clear
6:57 AM 32.0 °F 28.7 °F 28.0 °F 85% 30.12 in 10.0 mi ESE 3.5 mph - N/A   Clear
7:57 AM 34.0 °F 29.8 °F 30.0 °F 85% 30.14 in 10.0 mi ENE 4.6 mph - N/A   Clear
8:57 AM 44.1 °F 40.1 °F 30.0 °F 58% 30.13 in 10.0 mi East 6.9 mph - N/A   Clear
9:57 AM 46.0 °F 41.4 °F 30.9 °F 56% 30.13 in 10.0 mi East 9.2 mph - N/A   Clear
10:57 AM 50.0 °F - 28.9 °F 44% 30.14 in 10.0 mi East 8.1 mph - N/A   Clear
11:57 AM 53.1 °F - 30.0 °F 41% 30.13 in 10.0 mi SE 6.9 mph - N/A   Clear
12:57 PM 55.0 °F - 27.0 °F 34% 30.11 in 10.0 mi East 6.9 mph - N/A   Clear
1:57 PM 57.9 °F - 24.1 °F 27% 30.06 in 10.0 mi East 10.4 mph - N/A   Clear
2:57 PM 60.1 °F - 25.0 °F 26% 30.04 in 10.0 mi ESE 8.1 mph - N/A   Clear
3:57 PM 59.0 °F - 24.1 °F 26% 30.02 in 10.0 mi East 11.5 mph - N/A   Clear
4:57 PM 57.9 °F - 25.0 °F 28% 30.00 in 10.0 mi East 9.2 mph - N/A   Clear
5:57 PM 55.0 °F - 26.1 °F 33% 29.99 in 10.0 mi East 12.7 mph - N/A   Clear
6:57 PM 52.0 °F - 27.0 °F 38% 29.99 in 10.0 mi ESE 10.4 mph - N/A   Clear
7:57 PM 51.1 °F - 27.0 °F 39% 29.99 in 10.0 mi ESE 11.5 mph - N/A   Clear
8:57 PM 52.0 °F - 26.1 °F 37% 29.98 in 10.0 mi ESE 9.2 mph - N/A   Clear
9:57 PM 51.1 °F - 27.0 °F 39% 29.96 in 10.0 mi ESE 13.8 mph - N/A   Mostly Cloudy
10:57 PM 51.1 °F - 28.9 °F 43% 29.94 in 10.0 mi ESE 11.5 mph - N/A   Overcast
11:57 PM 51.1 °F - 30.9 °F 46% 29.92 in 10.0 mi ESE 13.8 mph - N/A   Overcast